{"data":{"norad_id":68951,"epoch":"2026-09-20T04:38:53.819808Z","epoch_age_seconds":45744,"freshness":"FRESH","line1":"1 68951U 26099A   26263.19367847  .00013720  00000+0  41636-3 0  9994","line2":"2 68951  53.1597  77.4870 0001408  82.9617 277.1546 15.34408186 21858","mean_motion":15.34408186,"eccentricity":0.0001408,"inclination_deg":53.1597,"raan_deg":77.487,"arg_perigee_deg":82.9617,"mean_anomaly_deg":277.1546,"bstar":0.00041636,"rev_number":2185,"period_min":93.847257407684,"perigee_km":461.71572291805,"apogee_km":463.64209667825,"semimajor_km":6840.8159097982,"source":"CELESTRAK","updated_at":"2026-09-20T09:00:44.051145Z"}}